www.pogodaiklimat.ru

Погода и климат >> Архив погоды >> Непал >> Суркхет


ПОГОДА в Суркхете

  • Прогноз погоды в Суркхете
  • Монитор погоды в Суркхете

АРХИВ ПОГОДЫ в Суркхете

Время (UTC), дата Ветер
(напр.,м/с)
 
Видим.   Явления Облачность Т
(С)
Тd
(С)
f
(%)
Тe
(С)
Тes
(С)
Комфортность P
(гПа)
Po
(гПа)
Тmin
(С)
Tmax
(С)
R
(мм)
R24
(мм)
S
(см)
00 10.09 штиль 0 6000 м 6/3 600 м
[Cb calv Ac As]
+23.3 +22.7 96 +32 +32 очень
душно
999.6 925.9
03 10.09 Ю 2 8000 м 8/5 300 м
[Cu Sc Ac und]
+28.8 +24.5 78 +41 +43 опасность
перегрева
1001.3 927.1 +23.3 51
06 10.09 ЮВ 2 9000 м 5/5 300 м
[Sc diur, vesp]
+29.7 +25.2 77 +43 +52 опасность
перегрева
1000.8 926.6
09 10.09 З 6 7000 м осадки на расстоянии 8/6 100 м
[Sc diur, vesp Ac cast]
+32.3 +25.8 69 +48 +49 опасность
перегрева
997.5 924.1
12 10.09 З 4 5000 м слаб. дождь {морось} 9/5 300 м
[Frnb As trans]
+27.9 +25.2 85 +40 +41 очень
душно
997.2 924.3 +33.2 0.0
00 11.09 штиль 0 6000 м 10/9 600 м
[St Ac As]
+24.4 +23.4 94 +33 +33 очень
душно
1001.5 927.3
03 11.09 ЮВ 2 7000 м 6/4 300 м
[Sc diur, vesp Ac und Ci sp]
+26.2 +24.0 88 +36 +40 очень
душно
1001.9 928.4 +24.3 0.6
06 11.09 Ю 5 10 км 4/4 300 м
[Sc diur, vesp]
+31.4 +25.0 69 +45 +51 опасность
перегрева
1001.4 927.9
09 11.09 З 3 7000 м осадки на расстоянии {морось} 8/6 200 м
[Cu med, cong Ci fib]
+32.4 +25.5 67 +47 +50 опасность
перегрева
999.7 926.2
12 11.09 В 1 6000 м 9/6 300 м
[Frnb Ac cuf Ci fib]
+29.7 +25.5 78 +44 +44 опасность
перегрева
999.5 926.0 +32.8 0.4
00 12.09 штиль 0 6000 м слаб. ливневой дождь, в посл. час гроза 10/5 300 м
[Cb cap As op]
+25.0 +24.4 96 +35 +35 очень
душно
1002.1 928.6
03 12.09 СЗ 2 7000 м слаб. дождь {гроза} 10/8 300 м
[Sc diur, vesp As trans]
+25.0 +23.8 93 +34 +35 очень
душно
1004.4 930.7 +24.1 8
06 12.09 ЮВ 3 8000 м в посл. час морось 6/4 300 м
[Sc diur, vesp Ac und]
+29.4 +25.3 79 +43 +50 опасность
перегрева
1004.1 930.4
09 12.09 ЮЗ 4 8000 м в посл. час гроза {морось} 9/6 200 м
[Cb calv As trans Ci fib]
+29.2 +25.0 78 +42 +44 опасность
перегрева
1001.2 927.5
12 12.09 СВ 3 8000 м слаб. морось {гроза, дождь} 10/6 600 м
[Frnb As trans]
+27.9 +25.2 85 +40 +41 очень
душно
1001.2 927.5 +31.3 0.3
00 13.09 С 1 6000 м 8/4 600 м
[Sc diur, vesp Ac As]
+23.5 +23.2 98 +31 +31 очень
душно
1002.7 929.0
03 13.09 Ю 3 7000 м 9/6 300 м
[Sc diur, vesp Ac trans]
+25.1 +23.4 90 +34 +35 очень
душно
1004.3 930.4 +23.4 11
06 13.09 В 2 10 км 5/3 300 м
[Sc diur, vesp Ac cast]
+30.1 +23.7 69 +41 +51 опасность
перегрева
1004.3 930.4
09 13.09 ЮВ 3 8000 м в посл. час морось 9/6 200 м
[Sc diur, vesp As trans]
+28.4 +24.5 79 +40 +42 очень
душно
1002.4 928.5
12 13.09 Ю 2 8000 м слаб. морось {гроза, дождь} 9/5 100 м
[St Ac inh]
+24.6 +23.6 94 +33 +33 очень
душно
1001.7 928.0 +31.9 5
00 14.09 штиль 0 6000 м 9/6 200 м
[Sc diur, vesp Ac und]
+23.6 +23.2 98 +32 +32 очень
душно
1003.1 929.4
03 14.09 Ю 1 н/о 9/5 300 м
[Sc diur, vesp Ac trans]
+25.3 +23.2 88 +34 +36 очень
душно
1004.4 930.7 +23.4 8
06 14.09 Ю 5 8000 м 9/5 200 м
[Sc diur, vesp Ac und]
+29.8 +24.9 75 +43 +45 опасность
перегрева
1004.8 931.1
09 14.09 З 3 8000 м слаб. морось {гроза, дождь} 10/6 200 м
[Cb cap As op]
+26.0 +24.0 89 +36 +37 очень
душно
1003.5 929.8
12 14.09 СЗ 1 8000 м слаб. морось {гроза} 10/8 300 м
[St As trans]
+25.3 +23.7 91 +34 +34 очень
душно
1003.1 929.2 +31.3 0.9
00 15.09 штиль 0 6000 м 10/9 300 м
[Sc As trans]
+23.6 +23.2 98 +32 +32 очень
душно
1004.1 930.2
03 15.09 ЮЗ 2 7000 м 9/6 200 м
[St Ac und]
+25.0 +23.5 91 +34 +35 очень
душно
1005.5 931.6 +23.5 2
06 15.09 СВ 2 8000 м 4/4 300 м
[Sc diur, vesp]
+29.7 +23.8 71 +41 +51 опасность
перегрева
1005.2 931.3
09 15.09 З 2 10 км 6/6 200 м
[Sc diur, vesp]
+31.1 +24.5 68 +44 +48 опасность
перегрева
1002.3 928.4
12 15.09 В 5 8000 м 6/4 300 м
[Sc diur, vesp Ac cuf Ci fib]
+26.6 +22.7 79 +35 +35 очень
душно
1002.5 928.6 +31.7
03 16.09 СВ 2 6000 м 9/6 200 м
[Sc diur, vesp As trans]
+24.6 +22.7 89 +32 +34 очень
душно
1004.1 930.2 +23.0
06 16.09 СЗ 2 6000 м 5/4 300 м
[Cu med, cong Ci fib]
+30.6 +23.2 65 +41 +51 опасность
перегрева
1003.7 929.8
09 16.09 Ю 4 6000 м осадки на расстоянии 9/6 200 м
[Sc diur, vesp Ac cast]
+29.6 +24.4 74 +42 +43 опасность
перегрева
1000.9 927.0
12 16.09 ЮВ 2 8000 м 6/3 200 м
[Cu med, cong Ac trans Ci fib]
+27.9 +24.3 81 +39 +39 очень
душно
1000.2 926.3 +32.4

 

Местоположение метеостанции Суркхет (Непал): широта 28.60 долгота 81.62 высота над уровнем моря 720 м.

В архиве по умолчанию представлена погода в Суркхете за последнюю неделю. Архивные данные за месяц целиком и за предыдущие месяцы, начиная с января 2011 года, Вы можете получить, выбрав интересующий диапазон дат из раскрывающегося списка и нажав кнопку "Ввод!".


*Определитесь, кто Вы:
робот инопланетянин человек

Внимание! Время в таблицах - всемирное. Для получения местного времени необходимо прибавить поправку, которая равна 5.5 ч.

Смотрите также архив погоды в соседних городах и на ближайших метеорологических станциях:

Погода в Непалгандже (Непал) (56 км)
Погода в Джумле (Непал) (93 км)
Погода в Дипаял-Силгадхи (Непал) (97 км)
Погода в Гхорахи (Непал) (106 км)
Погода в Дхангадхи (Непал) (107 км)
Погода в Бахрайче (Уттар-Прадеш, Индия) (115 км)
Погода в Даделдхуре (Непал) (128 км)
Погода в Пантнагаре (Уттаракханд, Индия) (214 км)
Погода в Мектешваре (Уттаракханд, Индия) (215 км)
Погода в Сиддхартханагаре (Непал) (216 км)

Пояснения к столбцам:

Ветер - указаны скорость ветра в м/с - средняя за 10 мин, порывы в срок и между сроками (в фигурных скобках) и направление, откуда дует ветер: С - северный, СВ - северо-восточный, В - восточный, ЮВ - юго-восточный, Ю - южный, ЮЗ - юго-западный, З - западный, СЗ - северо-западный.
Видимость - горизонтальная дальность видимости в метрах или километрах. При видимости от 1 до 10 км при отсутствии осадков обычно наблюдается дымка, при ухудшении видимости до 1 км и менее - туман. В сухую погоду видимость может ухудшаться дымом, пылью или мглою.
Явления - указаны атмосферные явления, наблюдавшиеся в срок или в последний час перед сроком; фигурными скобками обозначены явления, наблюдавшиеся между сроками (за 1-3 часа до срока); квадратными скобками обозначены град или гололедные отложения с указанием их диаметра в мм.
Облачность - указаны через наклонную черту общая и нижняя облачность в баллах и высота нижней границы облаков в метрах; квадратными скобками обозначены формы облаков: Ci - перистые, Cs - перисто-слоистые, Cc - перисто-кучевые, Ac - высококучевые, As - высокослоистые, Sc - слоисто-кучевые, Ns - слоисто-дождевые, Cu - кучевые, Cb - кучево-дождевые. Подробнее классификацию облаков см. в Атласе облаков (PDF).
T - Температура воздуха - температура, измеренная на высоте 2 м над землей.
Td - Температура точки росы - температура, при понижении до которой содержащийся в воздухе водяной пар достигнет насыщения.
f - Относительная влажность воздуха - влажноcть воздуха, измеренная на высоте 2 м над землей.
Te - Эффективная температура - температура, которую ощущает одетый по сезону человек в тени. Характеристика душности погоды. При расчете учитывается влияние влажности воздуха и скорости ветра на теплоощущения человека.
Tes - Эффективная температура на солнце - температура, которую ощущает человек, с поправкой на солнечный нагрев. Характеристика знойности погоды. Зависит от высоты солнца над горизонтом, облачности и скорости ветра. Ночью, в пасмурную погоду, а также при ветре 12 м/с и более поправка равна нулю.
P - Атмосферное давление - приведенное к уровню моря атмосферное давление.
Po - Атмосферное давление - измеренное на уровне метеостанции атмосферное давление.
Tmin - Минимальная температура - минимум температуры воздуха на высоте 2 м над землей.
Tmax - Максимальная температура - максимум температуры воздуха на высоте 2 м над землей.
R - Количество осадков - Количество выпавших осадков за период времени, мм. При наведении курсора мыши на число - период времени, за который выпало указанное количество осадков.
R24 - Количество осадков - Количество выпавших осадков за 24 часа, мм.
S - Снежный покров - Высота снежного покрова, см. При наведении курсора мыши на число - состояние снежного покрова и степень покрытия местности в баллах.